Regional Weather Roundup
Issued by NWS

Home | Current Version | Previous Version | Graphics & Text | Print | Product List | Glossary On
Versions: 1 2 3 4 5 6 7 8 9 10 11 12 13 14 15 16 17 18 19 20 21 22 23 24 25 26 27 28 29 30 31 32 33 34 35 36 37 38 39 40 41 42 43 44 45 46 47 48 49 50
956
ASUS43 KBIS 071110
RWRND

NORTH DAKOTA REGIONAL WEATHER ROUNDUP
NATIONAL WEATHER SERVICE BISMARCK ND
500 AM CST SUN FEB 07 2016

NOTE: "FAIR" INDICATES FEW OR NO CLOUDS BELOW 12,000 FEET WITH NO
SIGNIFICANT WEATHER AND/OR OBSTRUCTIONS TO VISIBILITY.


NDZ001>003-009>011-017-071200-
NORTHWEST NORTH DAKOTA

CITY           SKY/WX    TMP DP  RH WIND       PRES   REMARKS
WILLISTON      LGT SNOW  32  26  78 NW28G39   29.85R WCI  18
MINOT          FLURRIES  37  26  64 W31G41    29.67F
MINOT AFB      CLOUDY    35  31  86 W29G41    29.65S
$$

NDZ018>021-031>035-040>046-071200-
SOUTHWEST NORTH DAKOTA

CITY           SKY/WX    TMP DP  RH WIND       PRES   REMARKS
BISMARCK       PTCLDY    38  24  57 W20G29    29.78F
DICKINSON      CLOUDY    33  16  49 W35G49    29.84R WCI  18
GARRISON         N/A     34  24  67 NW33G49   29.72F WCI  20
HETTINGER ARPT CLEAR     32  18  56 W31G40    29.92F WCI  17
$$

NDZ004>008-012>016-024-026-027-054-071200-
NORTHEAST NORTH DAKOTA

CITY           SKY/WX    TMP DP  RH WIND       PRES   REMARKS
GRAND FORKS    CLOUDY    36  31  82 NW21      29.51R
GRND FRKS AFB  CLOUDY    36  28  73 W26G37    29.50F
DEVILS LAKE    CLOUDY    33  26  75 W30G37    29.56F WCI  19
$$

NDZ022-023-025-028>030-036>039-047>053-071200-
SOUTHEAST NORTH DAKOTA

CITY           SKY/WX    TMP DP  RH WIND       PRES   REMARKS
FARGO          CLOUDY    37  28  70 W22G32    29.57R
JAMESTOWN      PTCLDY    36  22  56 NW28G39   29.64R
$$





USA.gov is the U.S. government's official web portal to all federal, state and local government web resources and services.